一网星座-0021星 (ONEWEB-0021 )

导读

ONEWEB-0021是英国OneWeb公司卫星互联网星座中的一员,于2020年2月6日发射入轨,属于OneWeb低轨卫星组网批次任务。OneWeb星座计划通过部署数百颗低轨道卫星,为全球提供可负担的高速卫星互联网接入服务。ONEWEB-0021的成功入轨,推进了OneWeb星座的组网进程,助力全球广覆盖卫星通信网络的搭建,是英国主导OneWeb星座建设的重要节点。

基本信息
目录编号:
45134
目录名称:
ONEWEB-0021
国际标识:
2020-008D
轨道中心:
EARTH
卫星名称:
一网星座-0021星
卫星全名:
一网星座-0021星 (ONEWEB-0021 )
卫星状态:
在轨 (已飞行2363 天)
发射日期:
2020-02-06 UTC
国别 :
英国 (GB)
星等 :
--
轨道信息
数据来源 国际轨道数据 AOE轨道数据
星历时间 2026-07-27T18:53:41+0800
11小时前
查看轨道信息
2026-07-24T15:00:00+0800
3天前
查看轨道信息
半长轴 7599.854km 7599.834km
偏心率 0.0001779 0.0001828
轨道倾角 87.882° 87.883°
近地点辐角 93.418° 92.875°
升交点赤经 28.256° 28.887°
平近点角 266.715° 118.157°
近地点 1220.364km 1220.307km
远地点 1223.07km 1223.087km
周期 109.892分钟 109.892分钟
每日圈数 13.10373 13.103781
详细信息
平衡模式:
三轴稳定
覆盖范围:
全球
运营商:
一网卫星公司
运营商所在国:
英国
制造商(研发单位):
空客防务与航天公司
制造商所在国:
法国大都会
使用方式:
暂无
卫星简介
OneWeb卫星网络由648颗重约125公斤的微型卫星组成,运行在1200公里的轨道上。 每颗卫星都能够提供至少每秒8千兆位的吞吐量,以使用其高吞吐量的Ku频段有效载荷为家庭和移动平台提供互联网接入。该卫星仍在工作。
2D轨道图
3D轨道图
轨道高度分析图
轨道倾角分析图
轨道综合分析图
查看轨道综合分析图